sat.trackr.live / text

‹ back to catalog

SCS-01 E

NORAD 63986 · 2025-100E

PAYLOAD ACTIVE UNKNOWN

§ Identity

Operator
Country
PRC
Launch date
2025-05-14
Launch site
JSC
Launch vehicle
Mass (kg)
RCS (m²)

External: N2YO · Heavens-Above · Gunter

§ Orbital elements

Epoch: 2026-09-21T21:47:07.273248Z

Period
94.65 min
Inclination
97.3549°
Eccentricity
0.0008932
Mean motion
15.21383661 rev/d
Perigee alt
495.5 km
Apogee alt
507.8 km
Semi-major
6,879.8 km
B*
3.3872e-4
RAAN
335.4209°
Arg perigee
352.9546°
Mean anomaly
7.1563°
Rev number
4,515

§ Raw data

SCS-01 E1 63986U 25100E   26264.90772307  .00007537  00000+0  33872-3 0  99922 63986  97.3549 335.4209 0008932 352.9546   7.1563 15.21383661 45156

JSON: /api/v1/satellites/63986 · /tle

For live sub-satellite position, see the globe view (requires WebGL).

§ Visibility from observer

Set your observer location to see the next 7 days of passes ≥ 10°. The values pass through the URL so the page stays shareable.

No JS? Fill the form by hand. The geolocation button needs JavaScript.